DW5057 Weather Reports


Display with metric or nautical units.
time (UTC)temp
F
wind
direction
speed
MPH
gust
MPH
rain 1hr
in
rain 24hr
in
rain mn
in
humidity
%
barometer
mb
20260901171516 95 284 4.0 8.0 0.00 0.00 0.00 55 1016.1
20260901170517 94 281 3.0 9.0 0.00 0.00 0.00 55 1016.0
20260901165517 94 290 2.0 7.0 0.00 0.00 0.00 56 1016.1
20260901164518 93 262 2.0 5.0 0.00 0.00 0.00 58 1016.1
20260901163518 91 249 0.0 6.0 0.00 0.00 0.00 61 1016.2
20260901162518 89 267 0.0 3.0 0.00 0.00 0.00 64 1016.3
20260901161518 87 227 0.0 3.0 0.00 0.00 0.00 68 1016.5
20260901160538 85 217 0.0 3.0 0.00 0.00 0.00 72 1016.5
20260901155538 85 211 0.0 2.0 0.00 0.00 0.00 72 1016.5
20260901154518 86 192 0.0 2.0 0.00 0.00 0.00 71 1016.6
20260901153559 88 196 1.0 4.0 0.00 0.00 0.00 68 1016.7
20260901152519 91 198 0.0 4.0 0.00 0.00 0.00 64 1016.8
20260901151515 92 259 1.0 4.0 0.00 0.00 0.00 61 1016.7
20260901150536 92 255 2.0 4.0 0.00 0.00 0.00 61 1016.6
20260901145537 92 248 1.0 3.0 0.00 0.00 0.00 62 1016.7
20260901144537 92 243 1.0 5.0 0.00 0.00 0.00 62 1016.8
20260901143516 93 247 1.0 2.0 0.00 0.00 0.00 60 1016.9
20260901142516 92 245 0.0 2.0 0.00 0.00 0.00 60 1016.9
20260901141516 91 248 0.0 2.0 0.00 0.00 0.00 63 1017.0
20260901140517 92 238 0.0 2.0 0.00 0.00 0.00 62 1017.1
20260901135517 92 260 0.0 3.0 0.00 0.00 0.00 62 1017.3
20260901134558 90 293 0.0 4.0 0.00 0.00 0.00 64 1017.4
20260901133517 88 344 0.0 2.0 0.00 0.00 0.00 68 1017.3
20260901132517 84 56 0.0 2.0 0.00 0.00 0.00 75 1017.3
20260901131539 81 325 0.0 1.0 0.00 0.00 0.00 84 1017.3
20260901130518 80 290 0.0 0.0 0.00 0.00 0.00 89 1017.4
20260901125518 79 0.0 0.0 0.00 0.00 0.00 91 1017.4
20260901124518 78 180 0.0 1.0 0.00 0.00 0.00 91 1017.3
20260901123518 78 0.0 0.0 0.00 0.00 0.00 92 1017.4
20260901122538 77 0.0 0.0 0.00 0.00 0.00 92 1017.6
20260901121518 77 0.0 0.0 0.00 0.00 0.00 92 1017.7
20260901120539 77 0.0 0.0 0.00 0.00 0.00 92 1017.6
20260901115519 77 0.0 0.0 0.00 0.00 0.00 92 1017.5
20260901114519 77 0.0 0.0 0.00 0.00 0.00 92 1017.7
20260901113519 77 0.0 0.0 0.00 0.00 0.00 92 1017.5
20260901112519 76 0.0 0.0 0.00 0.00 0.00 92 1017.6
20260901111540 76 342 0.0 2.0 0.00 0.00 0.00 92 1017.4
20260901110520 76 0.0 0.0 0.00 0.00 0.00 92 1017.2
20260901105520 76 0.0 0.0 0.00 0.00 0.00 92 1017.1
20260901104520 76 0.0 0.0 0.00 0.00 0.00 92 1016.9
20260901103520 76 0.0 0.0 0.00 0.00 0.00 92 1016.9
20260901102520 75 0.0 0.0 0.00 0.00 0.00 92 1017.0
20260901101521 76 0.0 0.0 0.00 0.00 0.00 92 1017.0
20260901100521 76 0.0 0.0 0.00 0.00 0.00 92 1017.0
20260901095521 76 0.0 0.0 0.00 0.00 0.00 92 1017.0
20260901094541 76 0.0 0.0 0.00 0.00 0.00 92 1017.0
20260901093521 76 0.0 0.0 0.00 0.00 0.00 92 1017.0
20260901092521 76 108 0.0 0.0 0.00 0.00 0.00 92 1017.1
20260901091521 76 0.0 0.0 0.00 0.00 0.00 92 1017.0
20260901090522 76 0.0 0.0 0.00 0.00 0.00 92 1016.9
20260901085522 76 0.0 0.0 0.00 0.00 0.00 92 1017.1
20260901084542 76 323 0.0 0.0 0.00 0.02 0.00 92 1017.2
20260901083522 76 0.0 0.0 0.00 0.02 0.00 91 1017.2
20260901082543 76 0.0 0.0 0.00 0.02 0.00 91 1017.2
20260901081523 76 186 0.0 1.0 0.00 0.02 0.00 91 1017.2
20260901080518 76 276 0.0 1.0 0.00 0.02 0.00 91 1017.4
20260901075518 76 172 0.0 1.0 0.00 0.02 0.00 91 1017.4
20260901074518 76 0.0 0.0 0.00 0.02 0.00 91 1017.4
20260901073518 76 0.0 0.0 0.00 0.02 0.00 90 1017.4
20260901072518 76 0.0 0.0 0.00 0.02 0.00 90 1017.4
20260901071519 76 181 0.0 1.0 0.00 0.02 0.00 90 1017.4
20260901070538 76 245 0.0 1.0 0.00 0.02 0.00 90 1017.3
20260901065518 76 225 0.0 1.0 0.00 0.02 0.00 90 1017.3
20260901064536 76 59 0.0 1.0 0.00 0.02 0.00 90 1017.5
20260901063516 76 0.0 0.0 0.00 0.02 0.00 90 1017.5
20260901062516 76 0.0 0.0 0.00 0.02 0.00 89 1017.7
20260901061516 76 196 0.0 1.0 0.00 0.02 0.00 89 1017.7
20260901060516 76 332 0.0 1.0 0.00 0.02 0.00 89 1017.9
20260901055516 76 0.0 0.0 0.00 0.02 0.00 89 1018.0
20260901054517 76 0.0 0.0 0.00 0.02 0.00 89 1018.2
20260901053517 76 194 0.0 1.0 0.00 0.02 0.00 89 1018.3
20260901052517 76 264 0.0 0.0 0.00 0.02 0.00 88 1018.5
20260901051557 76 197 0.0 1.0 0.00 0.02 0.00 88 1018.6
20260901050517 76 0.0 0.0 0.00 0.02 0.00 88 1018.7
20260901045518 76 0.0 0.0 0.00 0.02 0.00 88 1018.6
20260901044518 76 0.0 0.0 0.00 0.02 0.00 88 1018.5
20260901043518 76 0.0 0.0 0.00 0.02 0.00 88 1018.4
20260901042518 76 0.0 0.0 0.00 0.02 0.00 87 1018.5
20260901041538 76 164 0.0 1.0 0.00 0.02 0.00 87 1018.6
20260901040518 76 259 0.0 1.0 0.00 0.02 0.00 87 1018.5
20260901035519 76 192 0.0 1.0 0.00 0.02 0.02 87 1018.4
20260901034516 76 251 0.0 1.0 0.00 0.02 0.02 87 1018.4
20260901033516 76 233 0.0 2.0 0.00 0.02 0.02 87 1018.4
20260901032516 76 221 0.0 3.0 0.00 0.02 0.02 86 1018.2
20260901031516 76 233 0.0 2.0 0.00 0.02 0.02 86 1018.3
20260901030516 76 218 0.0 2.0 0.00 0.02 0.02 86 1018.3
20260901025517 76 197 0.0 2.0 0.00 0.02 0.02 85 1018.4
20260901024517 76 208 0.0 2.0 0.00 0.02 0.02 85 1018.3
20260901023517 76 223 0.0 2.0 0.00 0.02 0.02 85 1018.5
20260901022517 77 205 0.0 2.0 0.00 0.02 0.02 86 1018.7
20260901021517 77 209 1.0 3.0 0.00 0.02 0.02 86 1018.7
20260901020517 77 215 0.0 2.0 0.00 0.02 0.02 86 1018.7
20260901015517 77 259 0.0 2.0 0.00 0.02 0.02 86 1018.7
20260901014518 77 216 0.0 3.0 0.00 0.02 0.02 85 1018.8
20260901013538 76 228 0.0 3.0 0.00 0.02 0.02 85 1018.8
20260901012538 76 262 0.0 2.0 0.00 0.02 0.02 85 1018.8
20260901011518 76 234 0.0 2.0 0.00 0.02 0.02 85 1018.8
20260901010518 76 219 0.0 2.0 0.00 0.02 0.02 85 1018.9
20260901005516 76 238 0.0 3.0 0.00 0.02 0.02 85 1018.9
20260901004536 77 225 0.0 3.0 0.00 0.02 0.02 84 1018.8
20260901003516 77 233 0.0 2.0 0.00 0.02 0.02 84 1018.5
20260901002516 77 232 0.0 1.0 0.00 0.02 0.02 84 1018.5
20260901001536 77 264 0.0 2.0 0.00 0.02 0.02 83 1018.6
20260901000517 77 262 0.0 1.0 0.00 0.02 0.02 83 1018.6
20260831235516 77 258 0.0 0.0 0.00 0.02 0.02 83 1018.6
20260831234536 77 227 0.0 4.0 0.00 0.02 0.02 82 1018.7
20260831233517 77 230 0.0 2.0 0.00 0.02 0.02 82 1018.8
20260831232517 77 235 0.0 3.0 0.00 0.02 0.02 82 1018.9
20260831231517 77 247 0.0 2.0 0.00 0.02 0.02 81 1019.0
20260831230537 77 281 0.0 3.0 0.00 0.02 0.02 81 1018.9
20260831225517 78 231 1.0 3.0 0.00 0.02 0.02 80 1018.9
20260831224518 78 236 0.0 3.0 0.00 0.02 0.02 80 1018.9
20260831223518 78 229 0.0 4.0 0.00 0.02 0.02 80 1019.2
20260831222518 78 200 0.0 2.0 0.00 0.02 0.02 79 1019.4
20260831221519 78 242 0.0 2.0 0.00 0.02 0.02 79 1019.3
20260831220518 78 55 1.0 3.0 0.00 0.02 0.02 79 1019.4
20260831215516 79 69 1.0 3.0 0.00 0.02 0.02 78 1019.4
20260831214519 79 55 1.0 2.0 0.00 0.02 0.02 77 1019.4
20260831213516 79 61 1.0 3.0 0.00 0.02 0.02 77 1019.4
20260831212516 79 63 1.0 4.0 0.00 0.02 0.02 77 1019.3
20260831211517 79 39 1.0 5.0 0.00 0.02 0.02 76 1019.2
20260831210517 79 73 1.0 6.0 0.00 0.02 0.02 76 1019.1
20260831205517 80 49 1.0 3.0 0.00 0.02 0.02 75 1019.1
20260831204517 80 54 1.0 4.0 0.00 0.02 0.02 75 1019.0
20260831203517 80 43 2.0 6.0 0.00 0.02 0.02 74 1019.0
20260831202517 80 47 3.0 7.0 0.00 0.02 0.02 74 1019.0
20260831201518 80 39 2.0 5.0 0.00 0.02 0.02 76 1019.0
20260831200518 82 45 1.0 5.0 0.00 0.02 0.02 74 1018.9
20260831195518 82 41 1.0 3.0 0.00 0.02 0.02 72 1019.0
20260831194518 81 34 2.0 4.0 0.00 0.02 0.02 73 1019.2
20260831193518 80 48 2.0 8.0 0.00 0.02 0.02 76 1019.2
20260831192538 80 327 1.0 4.0 0.00 0.02 0.02 76 1019.2
20260831191538 81 43 1.0 5.0 0.00 0.02 0.02 75 1019.1
20260831190519 82 63 1.0 4.0 0.00 0.02 0.02 73 1019.3
20260831185516 83 35 1.0 4.0 0.00 0.02 0.02 72 1019.4
20260831184519 83 311 1.0 3.0 0.00 0.02 0.02 71 1019.4
20260831183516 82 333 1.0 3.0 0.00 0.02 0.02 71 1019.4
20260831182536 81 38 1.0 5.0 0.00 0.02 0.02 72 1019.5
20260831181517 80 39 1.0 4.0 0.00 0.02 0.02 73 1019.6
20260831180517 80 58 1.0 3.0 0.00 0.02 0.02 74 1019.6
20260831175516 80 58 1.0 3.0 0.00 0.02 0.02 75 1019.7
20260831174517 80 56 1.0 4.0 0.00 0.02 0.02 75 1019.7
20260831173517 80 16 1.0 4.0 0.00 0.02 0.02 76 1019.7
20260831172517 81 53 1.0 3.0 0.00 0.02 0.02 75 1019.6